Location: Songkhla
(7.2000°N, 100.6000°E)
Time: 18:51:05
(UTC+07:00)

JAISAT 1 - All Passes

Search period start: 29 September 2022 00:00
Search period end: 09 October 2022 00:00
Orbit: 495 x 523 km, 97.6° (Epoch: 28 September)

Date Brightness Start Highest point End Pass type
(mag) Time Alt. Az. Time Alt. Az. Time Alt. Az.
29 Sep - 04:23:03 10° NNW 04:26:23 34° WNW 04:29:44 10° SW night (unlit)
29 Sep - 16:18:30 10° SSW 16:21:52 31° W 16:25:13 10° NW daylight
30 Sep - 04:06:05 10° N 04:09:42 69° WNW 04:13:22 10° SSW night (unlit)
30 Sep - 16:01:27 10° S 16:05:11 60° W 16:08:52 10° NNW daylight
01 Oct - 03:49:24 10° NNE 03:53:00 59° E 03:56:38 10° S night (unlit)
01 Oct - 15:44:44 10° SSE 15:48:28 68° E 15:52:10 10° N daylight
02 Oct - 03:33:02 10° NE 03:36:16 30° E 03:39:32 10° SSE night (unlit)
02 Oct - 15:28:19 10° SE 15:31:45 34° ENE 15:35:09 10° NNE daylight
03 Oct - 03:17:09 10° ENE 03:19:31 16° E 03:21:55 10° SE night (unlit)
03 Oct - 04:51:19 10° NW 04:53:10 13° WNW 04:55:01 10° WSW night (unlit)
03 Oct - 15:12:19 10° ESE 15:15:01 19° ENE 15:17:41 10° NNE daylight
03 Oct - 16:47:07 10° SW 16:48:40 12° W 16:50:14 10° WNW daylight
04 Oct - 04:33:25 10° NNW 04:36:26 24° WNW 04:39:28 10° SW night (unlit)
04 Oct - 14:57:41 10° E 14:58:17 10° ENE 14:58:52 10° ENE daylight
04 Oct - 16:28:56 10° SSW 16:31:53 22° W 16:34:50 10° NW daylight
05 Oct - 04:16:09 10° N 04:19:39 46° WNW 04:23:12 10° SSW night (unlit)
05 Oct - 16:11:33 10° S 16:15:06 41° W 16:18:36 10° NNW daylight
06 Oct - 03:59:11 10° NNE 04:02:51 87° E 04:06:34 10° S night (unlit)
06 Oct - 15:54:33 10° S 15:58:17 82° WSW 16:01:59 10° NNW daylight
07 Oct - 03:42:32 10° NNE 03:46:02 43° E 03:49:34 10° S night (unlit)
07 Oct - 15:37:50 10° SSE 15:41:27 49° ENE 15:45:02 10° N daylight
08 Oct - 03:26:14 10° NE 03:29:11 23° E 03:32:09 10° SSE night (unlit)
08 Oct - 15:21:29 10° SE 15:24:37 26° ENE 15:27:43 10° NNE daylight
